Regional Weather Roundup
Issued by NWS

Home | Current Version | Previous Version | Graphics & Text | Print | Product List | Glossary On
Versions: 1 2 3 4 5 6 7 8 9 10 11 12 13 14 15 16 17 18 19 20 21 22 23 24 25 26 27 28 29 30 31 32 33 34 35 36 37 38 39 40 41 42 43 44 45 46 47 48 49 50
000
ASUS43 KDMX 251907
RWRIA

WEATHER ROUNDUP FOR IOWA
NATIONAL WEATHER SERVICE DES MOINES IA
200 PM CDT SAT APR 25 2015

NOTE: "FAIR" INDICATES FEW OR NO CLOUDS BELOW 12,000 FEET WITH NO
SIGNIFICANT WEATHER AND/OR OBSTRUCTIONS TO VISIBILITY.

* - THESE STATIONS ARE NOT NWS STATIONS...THUS NOT UNDER NWS
QUALITY CONTROL.  THEY ALSO DO NOT REPORT WEATHER SUCH
AS PRECIPITATION OR FOG.

IAZ001>003-012>014-020>022-031>034-043>046-252000-
   NORTHWEST IOWA

CITY           SKY/WX    TMP DP  RH WIND       PRES   REMARKS
CARROLL *      CLOUDY    48  45  87 NE15G22   29.71R
CHEROKEE *       N/A     55  43  62 E15G22    29.74R
DENISON *      CLOUDY    50  48  93 NE14G20   29.69S
LE MARS *      MOSUNNY   57  43  58 E15G24    29.75S
ORANGE CITY *  SUNNY     55  41  58 E14G20    29.75S
SHELDON *      PTSUNNY   57  41  54 E18G24    29.76R
SIOUX CITY     CLOUDY    56  43  61 E12       29.74R
SPENCER        PTSUNNY   57  42  57 E22       29.77R
STORM LAKE *   PTSUNNY   54  45  71 NE21G29   29.73S
$$

IAZ055>058-069>071-079>083-090>094-252000-
   SOUTHWEST IOWA

CITY           SKY/WX    TMP DP  RH WIND       PRES   REMARKS
ATLANTIC *     CLOUDY    48  46  93 NE16      29.68R
AUDUBON *      MOSUNNY   48  45  87 NE13G18   29.70R
CLARINDA *     CLOUDY    50  48  93 NE15      29.66R
COUNCIL BLFS * CLOUDY    48  48 100 N14       29.69R
CRESTON *      CLOUDY    46  46 100 NE21G26   29.64R FOG
HARLAN  *      CLOUDY    48  48 100 NE18      29.72S
LAMONI         CLOUDY    47  45  93 NE20G25   29.61R FOG
RED OAK *      CLOUDY    48  48 100 N13G22    29.66R
SHENANDOAH *   CLOUDY    50  48  93 N15G21    29.67R
$$

IAZ047>049-059>061-072>074-084-252000-
   CENTRAL IOWA

CITY           SKY/WX    TMP DP  RH WIND       PRES   REMARKS
AMES           CLOUDY    50  43  77 E12G22    29.69R
ANKENY *       CLOUDY    48  45  87 NE15G24   29.68R
CHARITON *     CLOUDY    46  45  93 NE14G24   29.63R FOG
DES MOINES     CLOUDY    49  43  80 NE14G24   29.68R
GRINNELL*      CLOUDY    46  45  93 NE16      29.68R
KNOXVILLE *    CLOUDY    46  43  87 NE15      29.63R
MARSHALLTOWN   CLOUDY    49  44  83 NE16      29.69R
PELLA *        CLOUDY    46  46 100 NE12G20   29.66R
PERRY *        CLOUDY    48  45  87 NE15      29.70R
$$

IAZ004>006-015-016-023>025-035-036-252000-
   NORTH CENTRAL IOWA

CITY           SKY/WX    TMP DP  RH WIND       PRES   REMARKS
ALGONA *       MOSUNNY   55  43  62 E15G26    29.76R
CLARION *      PTSUNNY   54  43  66 E22G29    29.73R
ESTHERVILLE    PTSUNNY   54  41  61 NE21G29   29.77R
FORT DODGE *   CLOUDY    52  43  71 E16       29.74S
MASON CITY     PTSUNNY   56  41  57 E20G28    29.76R
FOREST CITY *  PTSUNNY   52  41  66 NE15G23   29.76S
IOWA FALLS *   CLOUDY    52  41  66 E18G25    29.72R
$$

IAZ007>011-017>019-026>030-037>042-050>054-066-252000-
   NORTHEAST IOWA

CITY           SKY/WX    TMP DP  RH WIND       PRES   REMARKS
CEDAR RAPIDS   CLOUDY    50  45  83 E23G35    29.65R
CHARLES CITY * CLOUDY    52  41  66 E23G30    29.75S
CLINTON *      PTSUNNY  N/A N/A N/A E31G37    29.67R
DECORAH *      CLOUDY    50  37  62 E20       29.76S
DUBUQUE        CLOUDY    50  41  71 NE20G38   29.71F
MONTICELLO *   PTSUNNY   52  45  76 NE21G35   29.67S
OELWEIN *      CLOUDY    52  41  66 E22G32    29.71S
WATERLOO       CLOUDY    54  41  61 E24G32    29.70S
$$

IAZ064-065-067-068-078-252000-
   EAST CENTRAL IOWA

CITY           SKY/WX    TMP DP  RH WIND       PRES   REMARKS
DAVENPORT      CLOUDY    50  44  80 E31G43    29.62R
IOWA CITY      CLOUDY    50  44  80 NE17G25   29.67R
MT. PLEASANT * CLOUDY    50  48  93 NE17      29.61R
MUSCATINE *    CLOUDY    50  45  81 NE14      29.66R
QUAD CITIES    CLOUDY    49  44  83 E13G28    29.63R
$$

IAZ062-063-075>077-085>089-095>099-252000-
   SOUTHEAST IOWA

CITY           SKY/WX    TMP DP  RH WIND       PRES   REMARKS
BURLINGTON     CLOUDY    49  47  93 E15G22    29.59S
FAIRFIELD *    CLOUDY    48  45  87 NE17      29.62R
FORT MADISON * CLOUDY    48  46  93 NE14      29.59R
KEOKUK *       CLOUDY    52  50  93 NE13G18   29.56R
OSKALOOSA *    CLOUDY    48  45  87 NE21      29.64R
CENTERVILLE *  CLOUDY    48  48 100 NE12G17   29.60R
OTTUMWA        CLOUDY    48  45  89 NE15      29.62R
WASHINGTON *   CLOUDY    48  48 100 E13       29.64R
$$

ABBREVIATIONS USED IN REMARKS
   TC - TEMPERATURES IN CELSIUS
  WCI - WIND CHILL INDEX
   HX - HEAT INDEX
  VSB - VISIBILITY
$$



USA.gov is the U.S. government's official web portal to all federal, state and local government web resources and services.